Notices

What's New in latest Release from April 7th, 2021:

- Updated Glossary, including Speed of Maximum Gust, and Total Hourly Precipitation

- Updated national and regional climate services offices contacts and prices information

- Addition of station inventory lists for 1981-2010, 1971-2000, and 1961-1990 Normals.

If you haven't already, please take our survey and provide feedback about our website: https://eccc.sondage-survey.ca/f/LanguageSelection.aspx?s=442ca660-fcf1-47c0-95a9-59707d6fd709

Hourly Data Report for October 20, 2006

TORONTO CITY
ONTARIO

43°40'00.000" N
79°24'00.000" W
112.50 m
6158355
71508
XTO

Download Data

Hourly Data (October 2006)
Hourly Data Report for October 20, 2006
TIME
LST
Temp Definition
°C
Dew Point Definition
°C
Rel Hum Definition
%
Precip. Amount Definition
mm

Wind Dir Definition
10's deg

Wind Spd Definition
km/h
Visibility Definition
km
Stn Press Definition
kPa
Hmdx Definition


Wind Chill Definition


Weather Definition


00:00 7.3 4.1 80   LegendMM LegendMM   99.37     LegendNANA
01:00 6.9 3.7 80   LegendMM LegendMM   99.36     LegendNANA
02:00 6.7 3.9 82   LegendMM LegendMM   99.27     LegendNANA
03:00 6.7 4.2 84   LegendMM LegendMM   99.22     LegendNANA
04:00 7.1 4.7 85   LegendMM LegendMM   99.20     LegendNANA
05:00 7.2 4.9 85   LegendMM LegendMM   99.13     LegendNANA
06:00 7.3 4.6 83   LegendMM LegendMM   99.12     LegendNANA
07:00 7.2 4.3 82   LegendMM LegendMM   99.10     LegendNANA
08:00 7.2 4.4 82   LegendMM LegendMM   99.13     LegendNANA
09:00 6.2 4.8 91   LegendMM LegendMM   99.25     LegendNANA
10:00 5.7 4.0 89   LegendMM LegendMM   99.28     LegendNANA
11:00 5.9 4.3 89   LegendMM LegendMM   99.33     LegendNANA
12:00 6.2 4.6 89   LegendMM LegendMM   99.34     LegendNANA
13:00 7.3 4.1 80   LegendMM LegendMM   99.33     LegendNANA
14:00 8.3 4.2 75   LegendMM LegendMM   99.35     LegendNANA
15:00 8.7 3.5 70   LegendMM LegendMM   99.37     LegendNANA
16:00 8.4 3.9 73   LegendMM LegendMM   99.44     LegendNANA
17:00 7.5 3.7 77   LegendMM LegendMM   99.55     LegendNANA
18:00 7.0 3.6 79   LegendMM LegendMM   99.60     LegendNANA
19:00 6.8 3.1 77   LegendMM LegendMM   99.65     LegendNANA
20:00 6.9 3.2 77   LegendMM LegendMM   99.72     LegendNANA
21:00 7.0 2.7 74   LegendMM LegendMM   99.76     LegendNANA
22:00 6.9 1.7 69   LegendMM LegendMM   99.81     LegendNANA
23:00 6.7 1.1 67   LegendMM LegendMM   99.84     LegendNANA

Notes on Data Quality.

Legend

  • E = Estimated
  • M = Missing
  • NA = Not Available*
  • [empty] = Indicates an unobserved value
Date modified: